Location: Hamburg
(53.5554°N, 9.9941°E)
Time: 13:50:29
(UTC+02:00)

ISS - Visible Passes

Search period start: 22 May 2018 00:00
Search period end: 01 June 2018 00:00
Orbit: 402 x 407 km, 51.6° (Epoch: 23 May)

Date Brightness Start Highest point End Pass type
(mag) Time Alt. Az. Time Alt. Az. Time Alt. Az.
22 May -3.9 01:29:38 10° W 01:32:52 62° S 01:36:06 10° ESE visible
22 May -3.2 03:06:05 10° W 03:09:05 34° SSW 03:12:05 10° SE visible
22 May -3.2 23:01:32 10° SW 23:04:32 33° SSE 23:07:31 10° E visible
23 May -3.9 00:37:30 10° WSW 00:40:45 62° S 00:43:59 10° E visible
23 May -3.6 02:13:54 10° W 02:17:03 44° SSW 02:20:11 10° ESE visible
23 May -2.2 03:50:58 10° WSW 03:52:59 15° SW 03:54:59 10° S visible
23 May -2.7 22:09:48 10° SSW 22:12:31 24° SSE 22:15:15 10° E visible
23 May -3.8 23:45:25 10° WSW 23:48:38 56° S 23:51:51 10° E visible
24 May -3.8 01:21:44 10° W 01:24:57 54° S 01:27:56 11° ESE visible
24 May -2.4 02:58:26 10° W 03:00:20 20° SW 03:00:20 20° SW visible
24 May -3.6 22:53:21 10° WSW 22:56:31 47° SSE 22:59:42 10° E visible
25 May -3.9 00:29:35 10° W 00:32:49 61° S 00:35:45 12° ESE visible
25 May -2.8 02:06:05 10° W 02:08:20 27° SW 02:08:20 27° SW visible
25 May -3.9 23:37:26 10° W 23:40:41 63° S 23:43:55 10° E visible
26 May -3.4 01:13:51 10° W 01:16:57 40° SSW 01:17:17 39° S visible
26 May -3.8 22:45:17 10° WSW 22:48:31 59° S 22:51:45 10° E visible
27 May -3.7 00:21:38 10° W 00:24:50 50° SSW 00:26:28 24° SE visible
27 May -1.6 01:58:25 10° W 01:59:05 13° WSW 01:59:05 13° WSW visible
27 May -3.8 23:29:26 10° W 23:32:40 59° S 23:35:45 11° ESE visible
28 May -2.6 01:05:59 10° W 01:08:22 26° SW 01:08:22 26° SW visible
28 May -3.8 22:37:14 10° W 22:40:29 63° S 22:43:43 10° E visible
29 May -3.2 00:13:41 10° W 00:16:44 36° SSW 00:17:42 29° SSE visible
29 May -3.5 23:21:25 10° W 23:24:36 47° SSW 23:27:05 15° SE visible
30 May -1.8 00:58:20 10° WSW 00:59:43 16° SW 00:59:43 16° SW visible
30 May -3.7 22:29:11 10° W 22:32:24 56° S 22:35:37 10° ESE visible
31 May -2.6 00:05:48 10° W 00:08:30 24° SSW 00:09:06 23° S visible
31 May -2.9 23:13:24 10° W 23:16:24 33° SSW 23:18:33 16° SE visible
